Wind_Speed
5 4 3 3 3 2 2 3 3 3 3 4 4 4 4 4 4 4 5 4 4 4 4 4 5 5 5 6 6 6 5 5 5 5 6 6 6 6 5 5 4 4 5
5 3 3 3 3 2 2 3 3 3 4 4 4 4 4 5 5 5 5 5 5 6 6 5 5 5 5 5 6 6 6 6 6 6 6 7 8 7 7 6 6 6 6
4 4 3 2 2 2 2 3 3 4 4 4 4 5 5 6 6 6 6 6 6 6 7 6 6 6 6 6 7 7 7 7 7 7 7 8 9 8 8 7 7 7 7
5 4 3 1 1 2 2 3 3 4 4 5 5 5 6 6 6 6 6 7 7 7 7 7 7 7 7 7 7 7 7 8 8 8 9 9 9 10 10 9 8 8 8
4 3 2 2 2 2 3 3 3 4 5 5 6 6 6 6 6 7 7 7 8 8 8 8 8 8 8 7 7 8 8 8 9 9 9 10 11 11 11 10 10 9 9
4 3 3 2 2 2 3 3 3 4 5 5 6 6 7 7 8 8 8 8 9 9 9 9 9 9 8 8 8 8 8 9 9 9 9 11 12 12 12 11 11 11 10
4 3 2 1 1 2 3 3 4 4 4 5 6 6 7 8 8 9 9 9 10 10 10 10 10 9 9 9 8 9 9 9 9 10 10 11 13 13 13 12 12 12 12
3 2 1 0 1 2 3 3 3 4 5 6 6 7 8 9 10 10 10 10 11 11 11 11 10 10 9 9 9 9 9 9 9 10 11 11 12 13 14 14 13 13 12
2 2 1 1 2 2 3 3 4 5 6 6 7 8 9 9 10 10 10 11 11 11 11 11 11 10 9 9 9 9 9 9 9 9 11 12 12 13 14 15 14 14 14
2 1 0 2 2 2 3 3 5 5 6 7 8 9 9 10 10 11 11 11 11 12 12 11 10 9 9 9 9 9 9 10 10 10 10 12 13 14 14 14 15 14 14
2 1 1 1 2 3 4 4 5 6 6 7 8 9 10 11 11 11 11 12 12 12 11 11 10 9 9 9 9 9 10 10 10 10 11 11 13 14 15 15 15 15 15
2 1 0 1 2 2 3 4 5 6 7 7 8 9 10 11 11 12 12 12 12 11 11 10 10 9 9 9 9 10 10 10 11 11 11 12 13 14 16 16 16 16 15
3 2 1 1 2 3 4 4 5 6 7 7 8 9 10 11 12 12 12 12 11 11 11 11 10 10 10 9 9 10 10 10 11 11 11 11 13 14 15 16 16 16 16
3 2 1 1 2 3 4 4 5 6 7 7 8 9 10 11 12 12 12 12 12 12 12 12 11 10 10 10 10 9 10 10 11 11 11 11 12 14 15 16 16 17 17
3 2 1 1 2 3 3 4 5 5 6 8 8 9 10 11 12 12 13 13 13 13 13 12 11 11 10 10 10 10 10 10 11 11 11 12 13 14 15 15 16 17 18
3 2 1 1 2 3 3 4 5 5 6 7 8 9 10 11 12 12 13 13 14 14 13 13 12 11 11 10 10 9 9 9 10 10 11 11 12 13 14 15 15 16 17
3 2 2 2 2 3 3 4 5 6 7 8 9 9 10 11 11 12 13 13 14 14 14 13 13 12 11 11 10 9 8 9 9 10 10 10 12 13 14 15 15 16 17
4 3 2 2 2 2 3 4 5 6 7 8 9 10 10 11 11 12 13 14 14 14 14 13 13 12 11 11 10 9 8 8 9 9 9 10 11 12 14 14 15 16 17
4 3 2 2 2 2 3 4 5 6 7 8 8 9 10 10 11 12 13 14 14 14 14 14 13 13 12 12 11 9 9 8 8 8 8 9 10 12 13 14 16 16 17
4 3 3 2 2 2 3 4 5 5 6 7 8 9 10 11 12 13 13 14 14 14 14 14 14 13 12 12 11 10 9 9 8 7 8 8 9 11 12 14 15 16 17
5 4 3 3 3 3 3 3 4 5 6 7 8 9 10 11 12 13 14 14 14 14 14 14 14 13 12 12 11 11 10 9 9 8 8 8 9 10 12 14 15 16 18
5 4 4 4 3 3 3 3 4 5 5 6 7 8 9 10 12 13 14 14 14 14 14 14 14 13 13 13 12 12 11 10 9 9 8 8 8 9 11 13 14 15 17
6 5 4 4 4 3 3 3 3 4 5 6 8 9 10 11 12 14 14 15 14 14 14 14 14 13 13 13 13 13 12 11 10 9 9 8 8 8 10 11 13 14 16
7 6 5 4 4 3 3 3 4 5 6 7 9 9 11 12 13 14 15 15 15 15 14 14 14 14 14 14 14 14 13 12 11 10 10 9 8 8 9 10 12 14 16
8 7 6 6 5 4 4 4 5 6 7 8 9 10 11 13 13 14 15 15 15 15 15 15 15 15 15 15 15 14 13 12 11 11 10 9 9 9 9 9 11 12 15
9 8 8 7 6 5 5 5 6 6 7 8 9 10 12 13 13 14 15 15 15 16 16 16 16 16 16 16 16 15 14 13 12 11 10 9 9 9 8 9 10 12 13
Wind_Direction
135 129 113 97 91 75 41 21 11 2 359 3 2 356 352 353 351 354 351 347 341 330 322 315 303 297 288 278 274 268 263 253 245 238 235 228 223 221 217 213 212 215 213
145 140 119 107 88 60 32 19 16 13 8 4 359 352 347 344 343 341 340 338 335 329 319 311 304 295 287 278 274 270 263 257 248 237 234 229 223 221 220 216 214 216 216
151 133 121 105 68 53 37 17 10 7 6 0 355 352 347 341 337 335 335 334 332 329 321 311 305 297 286 279 278 273 265 258 251 238 234 229 225 222 221 218 217 213 214
149 133 117 90 60 42 18 4 360 357 357 358 358 356 351 342 338 335 332 331 330 327 322 316 311 303 294 286 281 276 268 258 253 245 237 231 226 223 219 218 217 218 214
146 130 110 90 70 26 360 353 348 351 355 0 2 2 357 348 341 338 333 333 329 324 320 315 310 302 294 288 283 279 271 260 254 248 241 234 228 224 221 221 220 220 219
144 127 113 100 52 13 6 1 0 1 2 2 2 0 356 349 339 337 335 334 330 324 319 315 310 303 294 288 283 278 275 266 257 250 245 235 229 226 224 224 224 222 222
140 127 120 101 20 11 9 8 4 0 359 2 360 355 350 344 340 335 334 332 331 326 321 317 311 302 295 291 284 279 274 268 260 254 246 237 231 227 227 224 225 223 223
139 130 124 54 1 356 3 4 355 350 351 354 351 347 344 342 338 335 332 330 329 326 323 318 312 303 295 291 286 282 276 270 263 256 247 240 234 229 227 225 224 224 225
147 144 137 356 347 346 344 338 341 346 346 347 347 345 341 338 337 335 333 330 329 326 325 321 315 305 295 289 285 281 276 272 267 259 249 242 238 233 230 228 226 227 226
138 146 344 341 342 336 333 336 347 345 343 345 346 345 342 339 338 337 336 334 332 330 328 324 317 309 301 291 284 280 275 271 268 263 253 245 239 234 232 230 228 227 226
152 173 342 346 344 345 342 343 346 347 348 349 349 347 346 345 344 342 341 338 336 334 331 326 320 314 306 298 289 282 276 272 267 266 258 250 242 236 233 232 230 230 228
186 207 270 340 353 353 354 353 350 350 351 350 350 349 348 348 346 344 343 341 340 338 335 329 323 318 313 303 294 287 280 274 268 266 261 253 246 239 234 233 231 231 228
204 212 236 326 351 354 355 354 351 350 351 349 347 348 349 349 347 346 346 345 343 340 337 332 324 319 317 309 299 291 284 278 272 269 264 256 247 240 237 234 231 228 225
210 215 240 310 337 348 355 354 350 351 351 348 347 350 351 351 350 351 352 350 347 343 339 336 331 322 317 312 305 297 289 280 274 271 266 258 249 242 238 235 231 228 227
215 224 267 321 331 345 353 355 355 354 352 349 351 352 353 354 356 356 355 354 351 349 346 342 338 332 325 319 312 305 296 286 279 274 269 260 251 243 239 236 233 230 226
216 222 260 316 332 341 348 356 356 353 350 349 351 353 354 355 357 358 357 356 355 354 352 348 344 338 333 325 317 309 301 291 284 279 273 263 251 244 239 238 235 231 228
210 217 249 286 307 331 349 350 351 351 351 352 354 355 356 356 357 357 357 357 356 355 353 351 348 345 342 338 330 319 310 300 289 284 275 264 252 246 242 239 235 232 231
211 222 246 270 298 324 344 344 344 350 355 356 356 356 356 357 357 356 355 355 355 356 356 354 353 351 348 345 342 334 323 311 299 289 278 268 256 249 245 241 237 235 234
216 227 243 266 290 316 335 338 342 350 354 355 357 358 358 358 357 356 354 354 354 355 355 355 353 352 350 347 346 343 335 324 311 296 282 274 263 252 247 244 241 237 235
225 231 237 255 281 310 326 332 341 349 353 356 0 0 358 358 356 355 353 352 353 353 354 353 353 352 352 351 349 346 340 330 322 309 293 281 269 257 249 245 242 237 234
231 230 231 248 272 296 311 323 337 346 353 356 359 359 357 357 356 356 354 353 352 353 354 354 355 354 353 352 349 346 341 334 324 313 301 289 277 264 256 248 243 238 235
232 231 239 255 272 289 305 320 336 347 353 356 356 357 356 355 354 355 354 352 352 353 355 355 355 353 350 348 345 341 339 334 328 318 309 297 286 271 260 252 245 239 236
231 233 240 255 265 280 300 321 335 341 345 347 348 350 351 351 353 354 354 354 354 353 352 353 352 350 347 344 342 339 335 332 326 319 312 305 293 279 266 256 249 243 237
226 231 237 245 253 265 285 306 318 325 333 339 342 345 347 348 349 350 351 352 352 350 349 348 348 348 345 343 340 337 334 330 326 321 313 305 295 283 272 260 252 246 240
227 230 236 242 248 260 280 295 307 316 325 331 336 339 342 344 345 347 348 349 349 348 347 345 344 342 342 340 339 336 332 327 323 320 315 306 296 286 278 265 255 248 242
232 234 239 243 247 260 275 288 299 308 317 324 330 334 337 338 339 343 345 346 347 346 345 343 340 338 338 337 336 334 330 326 320 316 312 306 298 289 280 270 260 252 245
Height
5898 5897 5897 5897 5897 5897 5897 5897 5896 5895 5894 5894 5893 5893 5892 5891 5890 5890 5889 5888 5887 5887 5886 5885 5885 5885 5884 5884 5884 5884 5884 5884 5884 5884 5885 5885 5886 5886 5886 5887 5887 5888 5888
5898 5898 5897 5898 5898 5898 5897 5897 5896 5895 5894 5894 5893 5892 5892 5891 5890 5889 5888 5887 5887 5886 5885 5885 5884 5884 5883 5883 5883 5882 5882 5883 5883 5883 5883 5884 5884 5885 5886 5886 5886 5887 5887
5898 5898 5898 5898 5898 5898 5897 5897 5896 5895 5895 5894 5893 5892 5891 5891 5890 5889 5888 5887 5886 5885 5884 5883 5883 5882 5882 5881 5881 5881 5881 5881 5881 5881 5882 5882 5883 5884 5884 5885 5885 5886 5886
5898 5898 5898 5898 5898 5898 5897 5897 5896 5895 5895 5894 5893 5892 5891 5890 5889 5888 5887 5886 5885 5884 5883 5882 5882 5881 5880 5880 5879 5879 5879 5879 5879 5880 5880 5880 5881 5882 5883 5883 5884 5885 5885
5898 5898 5898 5898 5898 5898 5897 5897 5896 5895 5895 5894 5893 5892 5891 5890 5889 5888 5887 5885 5884 5883 5882 5881 5880 5879 5879 5878 5878 5878 5877 5877 5877 5878 5878 5879 5879 5880 5881 5882 5883 5883 5884
5898 5898 5898 5898 5898 5898 5897 5897 5896 5895 5895 5894 5893 5892 5891 5890 5888 5887 5886 5885 5883 5882 5881 5880 5878 5878 5877 5876 5876 5876 5876 5876 5875 5876 5876 5877 5877 5878 5879 5880 5881 5882 5882
5898 5898 5898 5898 5898 5898 5897 5896 5896 5895 5894 5893 5892 5891 5890 5889 5888 5887 5885 5884 5882 5881 5879 5878 5877 5876 5875 5874 5874 5874 5873 5873 5873 5873 5874 5875 5875 5876 5877 5878 5879 5880 5881
5898 5898 5898 5898 5898 5897 5897 5896 5896 5895 5894 5893 5892 5891 5890 5888 5887 5886 5884 5882 5881 5879 5878 5876 5875 5874 5873 5872 5872 5871 5871 5871 5871 5871 5872 5872 5873 5874 5875 5876 5877 5878 5879
5898 5898 5898 5898 5897 5897 5897 5896 5895 5894 5894 5893 5891 5890 5889 5888 5886 5885 5883 5881 5880 5878 5876 5874 5873 5871 5870 5870 5869 5869 5869 5869 5869 5869 5869 5870 5871 5872 5873 5874 5875 5876 5877
5897 5898 5898 5897 5897 5897 5896 5895 5895 5894 5893 5892 5891 5890 5888 5887 5885 5883 5882 5880 5878 5876 5874 5872 5871 5869 5868 5868 5867 5867 5866 5866 5866 5866 5867 5868 5868 5869 5870 5871 5873 5874 5874
5897 5898 5897 5897 5897 5896 5896 5895 5894 5894 5893 5892 5890 5889 5888 5886 5884 5882 5880 5878 5876 5874 5872 5870 5869 5868 5866 5865 5865 5864 5864 5864 5864 5864 5864 5865 5865 5866 5867 5868 5870 5871 5872
5897 5897 5897 5897 5897 5896 5896 5895 5894 5893 5892 5891 5890 5889 5887 5885 5883 5881 5879 5877 5875 5873 5871 5869 5867 5866 5864 5863 5863 5862 5861 5861 5861 5861 5862 5862 5863 5863 5864 5866 5867 5868 5870
5896 5897 5897 5897 5896 5896 5895 5895 5894 5893 5892 5891 5889 5888 5886 5884 5882 5880 5878 5876 5874 5871 5869 5867 5865 5864 5862 5861 5860 5859 5859 5858 5858 5858 5859 5859 5860 5860 5861 5863 5864 5866 5867
5896 5897 5897 5897 5896 5896 5895 5894 5894 5893 5891 5890 5889 5887 5886 5884 5882 5879 5877 5875 5872 5870 5868 5865 5863 5862 5860 5859 5858 5857 5856 5856 5856 5856 5856 5856 5857 5858 5859 5860 5861 5863 5864
5896 5896 5896 5896 5896 5895 5895 5894 5893 5892 5891 5890 5888 5887 5885 5883 5881 5879 5876 5874 5871 5869 5866 5864 5862 5860 5858 5857 5855 5854 5854 5853 5853 5853 5853 5854 5854 5855 5856 5857 5859 5860 5861
5895 5896 5896 5896 5896 5895 5895 5894 5893 5892 5891 5890 5888 5886 5884 5882 5880 5878 5876 5873 5871 5868 5865 5863 5861 5858 5857 5855 5853 5852 5851 5850 5850 5850 5850 5851 5851 5852 5853 5855 5856 5857 5859
5895 5895 5896 5896 5896 5895 5894 5894 5893 5892 5890 5889 5888 5886 5884 5882 5880 5878 5875 5873 5870 5867 5864 5862 5859 5857 5855 5853 5852 5850 5849 5848 5848 5848 5848 5848 5848 5849 5851 5852 5853 5855 5856
5894 5895 5895 5895 5895 5895 5894 5893 5893 5891 5890 5889 5887 5885 5883 5881 5879 5877 5875 5872 5869 5867 5864 5861 5859 5856 5854 5852 5850 5849 5848 5847 5846 5846 5845 5846 5846 5847 5848 5849 5851 5852 5853
5894 5894 5895 5895 5895 5895 5894 5893 5892 5891 5890 5888 5887 5885 5883 5881 5879 5877 5874 5871 5869 5866 5863 5861 5858 5856 5853 5851 5849 5848 5846 5845 5844 5844 5843 5843 5844 5844 5845 5846 5848 5849 5851
5893 5894 5894 5894 5894 5894 5894 5893 5892 5891 5890 5888 5886 5885 5883 5881 5878 5876 5873 5871 5868 5865 5862 5860 5857 5855 5853 5850 5848 5847 5845 5844 5843 5842 5842 5841 5841 5842 5842 5843 5844 5846 5847
5893 5893 5894 5894 5894 5894 5893 5892 5892 5891 5889 5888 5886 5884 5882 5880 5878 5876 5873 5870 5867 5864 5862 5859 5857 5854 5852 5850 5848 5846 5844 5842 5841 5840 5840 5839 5839 5839 5840 5840 5841 5843 5844
5892 5893 5893 5893 5893 5893 5892 5892 5891 5890 5889 5888 5886 5884 5882 5880 5878 5875 5872 5869 5866 5864 5861 5858 5856 5853 5851 5849 5847 5845 5843 5842 5840 5839 5838 5837 5837 5837 5837 5837 5838 5839 5841
5891 5892 5892 5892 5892 5892 5891 5891 5890 5890 5889 5887 5886 5884 5882 5879 5877 5874 5871 5868 5866 5863 5860 5858 5855 5853 5850 5848 5846 5844 5842 5840 5839 5838 5836 5835 5835 5834 5834 5835 5835 5836 5838
5890 5890 5891 5891 5891 5891 5891 5890 5890 5889 5888 5886 5885 5883 5881 5878 5876 5873 5871 5868 5865 5862 5859 5857 5854 5852 5849 5847 5844 5842 5840 5838 5837 5836 5834 5833 5832 5832 5832 5832 5833 5833 5835
5889 5889 5890 5890 5890 5890 5890 5889 5889 5888 5887 5885 5883 5882 5880 5877 5875 5872 5870 5867 5864 5861 5858 5855 5853 5850 5847 5845 5842 5840 5838 5836 5834 5833 5832 5831 5830 5830 5829 5829 5830 5830 5831
5887 5888 5888 5889 5889 5889 5889 5888 5887 5886 5885 5884 5882 5880 5878 5876 5874 5871 5868 5865 5863 5860 5857 5854 5851 5848 5845 5842 5840 5837 5835 5833 5832 5830 5829 5828 5828 5827 5827 5827 5827 5827 5828